Lapse_Rate
6.5 6.5 6.5 6.5 6.5 6.5 6.5 6.5 6.5 6.5 6.5 6.5 6.5 6.5 6.4 6.1 6.0 6.4 6.3 6.3 6.0 4.7 3.3 1.9 2.6 1.6 1.2 0.4 0.4 -0.9 0.3 0.4 -0.1 -0.8 -1.1 -1.3 -0.4 0.0 0.2 1.2 1.2 0.7 1.8 2.2
6.5 6.5 6.5 6.5 6.5 6.5 6.5 6.5 6.5 6.5 6.5 6.5 5.7 4.7 5.5 6.0 6.7 7.2 7.0 7.1 6.7 6.1 5.1 4.2 2.7 2.3 1.4 -0.2 -0.9 -1.4 -1.0 -0.4 -0.6 0.0 -1.3 -1.8 -1.4 -1.4 -0.4 0.7 -0.2 -0.0 1.0 1.0
6.5 6.5 6.5 6.5 6.5 6.5 6.5 6.5 6.5 6.5 6.5 6.3 6.5 6.6 6.2 4.9 4.7 5.9 6.4 6.6 6.5 5.5 5.0 4.4 3.5 3.0 1.2 -0.2 -2.3 -1.4 -1.2 -1.8 -0.3 -0.5 0.5 -1.3 -2.3 -1.8 -1.0 -0.4 -1.0 -0.8 -0.3 0.3
6.5 6.5 6.5 6.5 6.5 6.5 6.5 6.5 6.5 6.5 6.5 6.5 6.3 5.0 3.0 2.1 3.1 2.9 4.5 5.2 5.2 4.1 3.7 2.9 2.3 2.2 1.1 1.2 0.7 -1.2 -0.9 -0.5 -1.3 -0.9 0.3 0.2 -0.4 -1.2 -1.0 -1.0 -0.2 -0.2 0.3 -0.0
6.5 6.5 6.5 6.5 6.5 6.5 6.5 6.5 6.5 6.5 6.5 6.5 4.5 4.0 4.3 3.3 1.1 2.2 1.5 1.2 1.2 1.6 1.9 1.6 1.6 1.4 1.6 1.9 1.7 1.5 1.2 0.0 -0.2 -2.7 -1.0 -0.2 0.5 0.0 0.1 0.0 0.3 0.2 -0.6 -0.8
6.5 6.5 6.5 6.5 6.5 6.5 6.5 6.5 6.6 6.6 6.3 5.9 6.1 6.5 6.5 3.6 2.2 2.4 2.5 2.1 1.8 1.5 1.4 1.0 1.2 0.9 1.3 1.9 1.9 2.4 2.9 2.7 1.6 -0.1 -2.4 -2.6 -0.2 0.2 0.6 -0.3 0.6 0.5 0.7 -0.6
6.5 6.5 6.5 6.5 6.4 6.0 6.5 6.5 6.2 6.0 5.7 3.7 6.4 5.7 4.4 2.7 2.5 2.8 2.7 2.2 2.0 1.4 1.2 1.3 1.1 1.0 1.5 2.0 2.5 3.1 3.5 3.5 3.4 3.0 1.2 -0.3 -0.6 -1.0 -0.2 0.3 0.1 -0.2 -0.2 0.2
6.5 6.5 6.5 5.9 6.1 6.5 6.3 5.0 6.1 5.5 4.9 5.4 5.4 5.0 4.9 4.1 3.9 3.5 2.7 2.2 2.1 1.2 1.3 1.7 1.6 1.4 1.7 2.0 3.0 3.2 3.3 3.3 3.5 3.4 3.3 3.9 0.2 0.3 -0.5 -0.9 -0.4 -0.2 -0.2 0.9
6.5 6.5 5.2 4.2 4.1 3.2 1.2 2.4 3.9 1.9 4.9 5.1 4.3 4.9 5.7 5.8 4.9 4.1 3.6 2.7 1.9 1.4 1.1 1.2 1.4 1.4 1.3 2.5 2.9 2.7 2.6 3.0 3.2 3.3 4.1 4.4 2.9 2.0 1.9 1.0 0.8 1.1 1.8 1.9
6.5 6.1 4.1 1.3 0.6 0.7 -0.7 1.1 2.6 1.4 3.2 3.4 4.5 5.1 5.1 5.0 4.4 4.1 3.6 3.1 2.6 1.6 0.9 0.7 1.4 2.3 1.9 2.1 3.1 2.4 2.3 2.7 3.2 3.5 4.2 4.1 5.0 4.7 3.4 2.8 2.3 3.0 3.0 3.1
6.5 4.4 2.4 2.2 1.1 1.0 0.1 -1.2 -0.7 0.7 2.1 3.2 3.6 3.8 3.4 4.1 3.9 3.5 2.7 2.0 2.0 1.5 0.9 0.5 1.2 1.1 1.5 2.9 2.5 2.4 2.8 3.2 3.7 4.9 4.5 4.5 4.9 4.8 3.8 3.5 4.0 3.6 4.0 4.5
6.5 4.4 5.7 4.6 6.0 3.2 -0.1 1.8 0.5 1.1 3.9 3.5 1.7 3.9 4.1 3.7 2.5 2.1 1.9 0.8 0.1 0.2 -0.4 -0.0 0.0 0.5 1.6 2.3 2.5 2.5 3.0 4.3 4.7 5.1 5.0 5.4 5.2 4.8 5.8 7.3 8.4 9.5 9.6 9.1
6.6 6.9 4.9 5.5 3.0 -1.5 -0.4 4.3 4.2 4.2 5.2 5.1 4.7 3.1 2.8 2.6 -1.8 1.7 1.8 -2.8 -3.4 -1.6 -1.2 -1.3 -0.5 0.2 1.4 2.0 2.5 3.2 3.3 3.9 4.2 5.6 4.6 4.5 5.1 5.5 5.2 5.0 6.8 7.4 7.9 9.4
1.2 2.1 6.5 0.7 6.8 5.3 4.5 4.9 4.9 2.3 2.4 3.6 4.2 4.4 3.2 2.2 0.2 -0.4 -0.4 0.2 -2.5 -3.4 -2.3 -1.9 -1.1 -0.8 1.0 0.7 1.5 2.6 3.3 5.9 6.4 5.3 5.2 5.2 5.3 5.8 6.1 6.1 5.7 5.0 6.2 7.3
6.7 6.2 5.0 4.7 3.6 4.8 2.2 3.0 6.3 6.8 5.9 5.6 4.3 4.5 4.3 4.1 3.1 2.2 1.3 -0.1 -1.3 -2.2 -1.7 -2.7 -1.4 -0.8 -0.6 -0.9 1.7 1.1 2.8 3.2 3.6 4.2 4.8 5.9 6.6 6.5 6.3 6.1 6.0 5.9 5.7 5.7
6.6 6.1 5.0 6.3 7.2 7.6 7.8 7.6 7.3 7.3 7.9 7.9 7.5 7.6 5.6 5.5 3.4 2.6 1.9 0.3 0.2 2.0 1.6 0.6 0.4 1.1 -1.8 -2.3 0.1 1.0 0.9 5.7 7.9 6.3 5.9 5.4 5.2 5.0 5.1 5.2 5.3 5.8 5.8 5.9
6.7 6.9 7.3 7.3 7.6 7.7 7.8 8.2 8.1 8.0 7.9 7.9 8.0 8.1 7.5 7.1 5.7 4.3 3.8 3.0 2.4 1.8 1.7 1.8 1.6 2.1 0.9 -0.4 -1.0 1.8 3.0 3.3 6.5 7.7 4.7 4.0 3.8 4.0 4.6 5.3 5.5 5.7 6.0 6.5
6.1 8.0 8.1 7.9 7.8 7.9 8.0 8.1 8.0 7.9 7.6 7.5 7.6 7.5 7.2 6.9 6.6 6.5 5.9 5.1 4.4 3.8 3.3 3.1 2.7 2.5 2.7 2.4 1.9 3.1 4.3 3.8 4.3 4.4 3.8 3.2 3.3 4.2 4.9 5.9 5.7 5.7 6.2 5.9
8.1 8.4 8.2 8.3 8.3 8.1 8.2 7.7 7.8 7.6 7.1 7.1 7.0 7.0 7.0 7.0 7.0 6.7 6.3 5.7 5.3 4.9 5.3 5.0 6.2 8.1 6.2 5.5 6.9 4.6 4.9 5.8 5.3 3.7 3.5 5.2 3.5 4.1 4.8 5.7 5.9 5.9 5.9 5.9
7.4 7.8 7.7 8.3 7.8 8.1 7.2 7.3 7.2 6.9 7.1 7.1 7.1 7.0 7.1 7.3 7.2 6.7 6.4 6.1 6.3 5.9 6.1 6.3 6.5 6.0 6.4 6.4 9.1 6.6 6.3 5.6 4.6 3.9 3.5 3.8 3.7 4.0 3.6 4.9 5.8 5.0 4.8 5.3
6.8 7.2 7.3 7.2 7.9 6.9 7.0 7.0 7.0 6.9 7.2 7.4 7.2 7.1 7.2 7.2 7.1 6.9 6.6 6.7 6.9 7.0 7.3 8.1 7.9 7.6 7.4 8.0 8.3 6.4 6.0 5.5 4.9 4.1 3.3 3.2 2.7 3.1 3.2 3.6 3.9 4.5 5.0 5.1
5.9 6.4 6.5 6.8 7.3 5.8 6.1 6.3 6.9 7.0 7.2 7.3 7.5 7.3 6.9 7.0 7.0 7.0 7.0 6.7 7.0 8.4 8.3 7.7 7.5 7.4 7.7 8.5 7.0 6.0 5.6 5.3 4.9 4.0 3.0 2.5 2.9 3.2 3.1 3.1 3.3 4.1 4.7 4.2
5.3 5.9 6.1 6.7 6.2 5.0 5.7 6.5 7.0 6.9 6.6 6.6 6.8 7.1 7.2 7.2 7.1 6.8 6.9 7.1 7.6 7.2 8.0 7.4 8.0 8.6 7.4 4.2 5.1 5.5 5.2 4.8 3.9 2.5 1.9 2.1 3.4 3.7 3.5 3.6 4.3 4.4 3.8 4.0
4.7 5.5 6.0 7.0 5.1 6.0 6.6 7.1 7.3 7.3 6.6 6.8 6.8 7.2 7.5 7.4 7.4 7.6 7.3 8.1 8.7 8.3 8.0 8.4 8.4 8.8 6.8 4.6 4.7 4.1 3.6 3.3 3.0 2.4 2.3 5.8 2.4 2.7 3.1 3.7 3.6 3.8 4.2 3.6
4.2 5.0 6.3 6.0 5.5 7.5 7.6 6.9 7.3 6.4 6.3 6.6 6.6 7.1 7.0 7.4 7.3 7.3 6.9 7.2 8.6 6.9 6.5 8.0 9.0 8.3 3.2 4.2 4.4 4.3 3.9 3.7 3.7 3.9 3.7 3.0 2.9 2.0 2.3 3.0 3.4 3.8 4.6 3.2
4.0 6.0 6.9 5.6 6.7 8.1 7.1 8.0 7.4 6.0 7.0 5.9 7.4 7.1 7.1 7.5 7.4 6.7 6.5 8.0 6.9 7.4 6.0 6.2 7.3 6.7 6.0 5.0 5.0 4.2 3.9 3.8 3.6 2.9 4.6 3.9 2.3 1.1 1.2 1.5 2.1 2.8 3.2 3.1
3.8 7.1 7.3 5.1 7.0 8.1 7.1 7.5 7.0 5.7 5.5 5.6 6.6 6.5 6.6 6.9 7.3 7.3 7.6 6.3 5.9 6.0 6.2 6.0 5.2 5.9 6.3 6.0 3.6 2.7 2.6 2.7 4.2 4.6 3.7 1.4 0.0 -0.4 0.5 0.9 0.8 1.2 1.9 2.8
Wind_Speed
2 2 2 1 3 2 3 1 3 3 5 5 5 6 5 5 5 7 7 5 4 4 3 2 4 4 5 5 6 5 5 4 4 4 3 3 3 3 3 2 2 2 1 1
4 0 2 3 4 4 3 2 2 1 4 4 3 3 2 3 4 7 8 8 6 4 3 3 3 3 4 5 5 5 5 5 4 4 4 4 4 3 3 3 3 2 3 3
2 4 1 3 4 2 2 2 4 2 4 2 4 6 6 5 4 4 4 5 6 4 3 2 2 3 4 4 3 5 5 5 5 5 5 5 4 4 4 3 2 2 3 3
1 3 4 2 2 2 3 2 2 4 3 4 2 2 3 3 4 6 4 5 5 4 3 2 1 1 1 3 4 4 4 4 4 5 5 5 4 5 4 2 3 3 3 3
3 1 1 3 6 4 3 4 6 4 2 1 1 2 5 5 4 4 6 4 3 2 2 1 1 1 2 3 3 4 4 3 3 3 4 4 5 5 3 2 2 2 3 5
2 4 2 2 8 4 2 2 11 9 4 1 0 2 4 3 5 5 5 4 5 4 2 2 1 1 1 3 3 4 4 4 4 3 2 3 4 5 2 2 3 4 5 4
3 2 2 6 13 4 3 3 9 6 5 2 4 4 3 1 4 4 4 5 4 4 4 3 2 2 3 3 4 4 4 5 5 5 4 5 4 2 3 4 5 4 5 5
1 4 2 7 5 5 2 4 4 3 3 5 7 10 5 6 5 5 5 4 3 4 4 3 3 3 4 5 4 3 4 5 6 6 5 5 3 4 4 4 4 5 5 7
4 3 1 3 4 3 3 4 5 3 7 8 10 9 7 6 6 6 5 4 3 4 4 4 4 4 5 5 3 4 4 5 6 6 6 6 4 4 4 3 3 5 5 6
3 3 5 3 4 3 5 6 7 5 8 7 10 11 12 9 7 6 6 6 4 5 6 6 4 5 5 5 4 4 5 6 6 5 6 4 4 4 4 4 4 5 5 6
4 5 7 2 4 4 5 4 6 7 6 10 10 14 10 11 7 6 5 4 4 5 6 7 4 5 5 5 4 5 6 6 6 5 5 5 5 5 5 6 7 6 6 7
3 2 3 9 16 7 5 6 7 8 13 11 7 13 10 9 6 4 5 3 5 6 5 7 5 5 5 5 5 5 5 5 4 4 4 4 5 7 11 13 15 17 18 13
4 9 7 16 11 4 4 11 15 12 12 14 12 9 6 6 4 7 5 5 6 7 6 5 5 6 5 4 5 6 6 6 5 6 4 4 5 6 7 8 13 14 16 16
2 6 13 3 14 13 13 13 15 11 10 11 12 9 8 6 5 6 7 8 5 5 6 6 5 7 6 4 5 5 5 11 5 3 4 4 5 6 6 7 8 8 11 13
13 10 11 13 10 10 6 7 13 12 11 10 7 8 6 7 8 9 7 5 4 4 6 5 5 8 4 5 6 5 5 4 5 5 5 7 5 6 6 7 7 7 7 11
13 10 9 11 14 15 15 15 13 14 14 13 12 11 7 8 7 7 5 4 4 5 6 6 6 7 4 5 5 4 5 12 10 4 3 3 4 5 5 6 6 6 6 7
15 17 17 15 15 16 16 14 14 14 15 14 13 12 12 9 6 6 6 4 6 6 5 5 7 4 5 5 5 4 3 4 9 3 2 3 3 4 5 6 6 6 7 8
7 13 13 14 14 15 15 15 14 14 14 15 13 11 10 9 7 6 3 2 3 4 5 6 6 5 5 5 5 4 4 4 4 3 2 3 4 4 4 5 6 6 6 7
12 13 14 15 14 14 14 14 14 14 14 12 11 10 9 8 6 4 3 3 3 4 4 4 8 7 5 6 7 4 4 4 3 2 1 4 3 3 4 5 5 6 6 5
13 13 14 15 15 14 13 13 14 13 13 11 10 9 7 6 4 4 3 4 4 4 4 6 5 3 4 6 9 2 3 3 3 1 1 1 3 3 4 7 6 5 5 5
12 13 13 13 13 13 12 13 13 14 14 12 9 9 8 6 5 4 3 3 3 5 6 7 3 2 3 5 5 3 3 3 2 1 2 3 4 4 4 5 5 5 5 5
10 11 12 12 13 12 12 12 12 13 13 13 11 8 7 5 5 4 3 3 4 9 2 1 2 7 8 12 4 4 4 3 1 1 2 3 3 4 4 4 5 5 5 5
9 10 11 12 12 11 11 11 12 11 11 12 11 11 7 5 4 3 4 4 4 8 2 1 8 4 15 5 4 4 3 2 0 1 2 2 3 3 4 4 5 5 5 5
9 10 10 10 9 9 12 14 13 11 10 10 10 9 8 6 4 2 4 9 13 8 5 5 7 13 11 3 3 2 2 1 2 2 3 5 3 3 3 4 4 5 5 6
9 9 8 8 9 9 12 11 11 11 11 10 9 8 9 6 4 4 5 4 12 8 6 11 12 11 3 3 2 1 1 2 3 3 2 3 3 3 3 4 4 5 3 4
8 7 6 7 7 7 8 7 7 8 8 7 6 6 7 6 5 4 4 8 6 8 4 4 4 3 2 3 1 2 3 3 3 4 5 3 3 3 3 4 4 4 5 5
6 14 6 7 7 6 8 8 8 8 9 8 5 6 7 6 7 6 7 4 4 4 3 3 4 5 3 3 3 3 3 3 6 4 3 3 3 3 4 4 4 5 6 5
Wind_Direction
264 210 177 218 8 30 69 199 129 263 202 231 201 164 162 151 156 168 167 166 147 126 120 89 65 36 30 23 15 2 17 28 5 353 14 10 11 2 354 342 330 296 276 254
9 57 199 70 48 74 90 137 73 205 280 214 175 112 181 187 174 178 188 184 167 138 114 71 47 46 34 13 7 6 22 18 10 19 26 19 13 2 355 344 344 327 304 286
293 346 7 51 343 345 291 190 156 32 254 203 145 180 215 211 215 203 178 162 155 149 142 112 72 29 8 354 354 16 11 8 12 16 23 17 9 12 7 356 341 320 299 293
241 6 51 272 287 257 294 352 236 292 257 196 191 201 270 226 194 205 186 165 158 153 150 140 119 90 333 345 352 3 2 358 8 9 1 358 13 17 350 342 337 330 313 291
91 84 260 28 3 1 25 31 5 318 33 198 2 19 291 206 205 198 187 197 188 178 179 184 315 354 345 338 339 340 337 334 336 348 340 346 351 338 326 320 325 317 312 307
34 91 74 268 313 311 274 43 5 7 4 227 145 226 249 205 185 198 188 178 185 195 199 224 258 228 287 300 307 303 307 311 313 308 290 289 300 303 287 292 298 310 304 274
14 92 70 335 317 296 70 301 338 347 332 267 225 240 300 260 192 194 200 199 184 189 223 237 243 239 271 274 268 281 289 303 301 305 299 267 280 272 287 299 304 295 290 287
72 60 344 359 1 56 300 298 295 304 307 298 279 287 269 249 249 229 225 214 217 224 243 247 232 229 258 265 272 277 289 286 289 295 296 292 277 288 289 293 293 294 299 296
155 180 202 283 201 206 178 238 291 255 313 290 290 282 282 270 248 240 231 230 223 229 245 251 243 227 249 257 264 282 281 279 283 289 290 288 277 276 289 281 279 288 286 286
44 287 273 258 279 224 194 239 267 254 291 287 279 286 282 272 241 235 237 242 222 221 235 246 237 247 239 265 270 269 271 275 281 277 279 264 281 278 271 280 280 275 275 276
273 299 312 8 264 298 292 275 287 281 251 261 273 279 268 271 250 240 229 227 223 226 233 243 242 244 248 255 250 261 265 269 269 270 270 282 277 270 260 249 248 259 255 251
262 259 254 284 310 312 296 298 285 285 300 287 252 273 270 261 247 238 247 227 230 234 238 248 238 252 258 246 239 243 258 265 263 266 262 276 284 294 287 284 284 284 286 278
300 328 274 294 296 288 261 299 305 292 287 288 289 258 259 253 241 255 234 232 231 233 230 237 244 254 252 239 235 238 243 260 263 272 271 275 280 285 295 301 295 289 289 287
312 321 317 338 310 315 309 298 300 289 271 274 276 279 256 251 283 265 256 247 218 224 238 229 237 249 250 223 228 235 241 261 264 265 263 267 264 274 282 291 298 299 291 290
333 318 281 300 318 311 272 300 311 313 302 301 279 264 265 260 261 261 253 233 226 221 243 229 235 256 233 212 224 223 228 241 245 257 257 258 269 286 288 287 285 281 293 294
314 309 311 319 323 327 328 326 317 318 317 313 310 305 269 262 257 263 254 185 187 226 228 216 232 247 209 199 230 236 230 250 255 237 236 271 283 285 287 285 283 282 283 279
333 338 337 333 333 329 328 323 319 315 314 313 311 309 304 294 270 266 260 214 214 239 236 222 243 234 227 208 215 232 240 248 266 259 260 276 279 278 279 282 283 284 283 285
309 330 329 328 325 329 326 328 325 322 317 312 311 310 303 298 285 281 277 247 241 259 239 240 236 238 234 218 209 223 231 246 252 250 274 290 278 267 279 284 288 288 296 294
341 335 334 332 331 325 326 325 325 322 319 318 315 313 306 301 302 302 300 276 269 275 277 240 259 265 204 212 212 212 222 231 220 232 259 296 329 312 310 307 308 314 312 309
339 339 333 333 331 332 330 329 328 325 323 320 320 320 318 318 318 312 305 285 269 253 259 272 270 257 245 242 262 174 213 198 199 215 287 228 314 307 315 327 321 310 308 314
339 335 333 335 333 333 335 334 334 335 334 336 331 331 330 325 326 318 312 311 310 291 276 275 298 244 242 252 254 174 178 178 180 209 275 293 305 308 305 308 309 305 307 313
330 330 328 330 337 329 330 328 330 334 339 342 344 340 336 338 335 326 296 277 298 314 345 309 275 272 254 255 195 158 157 158 178 274 293 293 295 304 306 306 305 303 305 305
327 327 326 328 334 318 320 331 333 333 336 335 340 343 342 332 329 335 339 310 299 285 1 323 286 350 74 59 73 91 117 135 190 274 277 271 282 294 300 301 298 308 302 302
328 328 324 328 326 332 338 337 336 338 332 335 341 343 348 347 343 341 322 339 335 60 37 330 11 72 66 54 54 68 85 37 301 287 287 305 303 295 292 293 298 301 295 315
323 318 318 339 336 337 343 331 337 343 340 348 343 350 350 352 345 4 351 356 359 58 24 357 5 56 48 27 6 24 338 312 284 259 273 279 278 294 294 297 294 291 306 314
325 323 329 338 326 330 335 338 347 334 338 336 340 350 345 347 344 11 7 24 16 27 19 4 359 62 7 330 29 326 307 299 317 300 289 281 285 289 288 293 296 301 302 305
333 349 351 339 340 347 339 353 347 338 329 320 347 345 340 342 342 11 23 17 17 14 14 11 354 350 343 351 336 307 301 292 298 274 244 282 280 273 280 283 286 291 295 301